Other Public Products
Issued by NWS Grand Forks, ND

Home | Current Version | Previous Version | Text Only | Print | Product List | Glossary Off
Versions: 1 2 3 4 5 6 7 8 9 10 11 12 13 14 15 16 17 18 19 20 21 22 23 24 25 26 27 28 29 30 31 32 33 34 35 36 37 38 39 40 41 42 43 44 45 46 47 48 49 50

000
FPUS83 KFGF 220710
OPUFGF
PRAIRIE TO PINES WEATHER ROUNDUP
NATIONAL WEATHER SERVICE EASTERN NORTH DAKOTA/GRAND FORKS ND
200 AM CDT FRI MAY 22 2015

 **SATELLITE DATA USED TO AUGMENT SKY COVER AT AUTOMATED STATIONS**
 *****  WEATHER ACROSS EASTERN NORTH DAKOTA  *****

CITY           SKY/WX    TMP DP  RH WIND       PRES   REMARKS
GRAND FORKS    CLEAR     41  37  86 W3        30.13S
GRAND FORKS AF CLEAR     42  40  93 SW1       30.14R
GRAND CITY NWS   N/A     43 N/A N/A N2          N/A
BUXTON         NOT AVBL
DEVILS LAKE    CLEAR     48  37  66 CALM      30.14S
FARGO          CLEAR     49  39  68 CALM      30.14R
WAHPETON ARPT  SUNNY     45  36  70 CALM      30.15S
$$

 *****  WEATHER ACROSS CENTRAL AND WESTERN NORTH DAKOTA  *****

CITY           SKY/WX    TMP DP  RH WIND       PRES   REMARKS
JAMESTOWN      CLEAR     51  41  68 S3        30.15R
BISMARCK       CLEAR     49  42  77 NE8       30.14F
MINOT          CLEAR     52  36  54 SE3       30.13S
MINOT AFB      CLEAR     44  42  93 S5        30.12S
GARRISON         N/A     51  40  65 E5        30.14S
WILLISTON      PTCLDY    55  35  47 CALM      30.12S
DICKINSON      CLEAR     44  33  65 S7        30.12S
HETTINGER      CLEAR     42  32  67 CALM      30.14F
$$

 *****  OTHER OBSERVATIONS NORTHEAST NORTH DAKOTA  *****

CITY           SKY/WX    TMP DP  RH WIND       PRES   REMARKS
WALHALLA       FAIR      45  36  70 SW5       30.13S
LANGDON        FAIR      41  34  75 S7        30.14S
CAVALIER       FAIR      45  41  87 CALM      30.13S
GRAFTON        FAIR      48  43  81 CALM      30.14S
CANDO          FAIR      46  37  71 CALM      30.15S
FORT TOTTEN    NOT AVBL
ROLLA          FAIR      45  32  61 SW6       30.15S
RUGBY          NOT AVBL
 ***** THE ABOVE OBSERVATIONS ARE NON NWS ARE NOT QUALITY
        CONTROLLED AND MAY MIS-REPORT RAIN FOR SNOW...
$$

 *****  OTHER OBSERVATIONS SOUTHEAST NORTH DAKOTA *****

CITY           SKY/WX    TMP DP  RH WIND       PRES   REMARKS
COOPERSTOWN    NOT AVBL
VALLEY CITY    FAIR      45  37  76 SW3       30.16S
OAKES            N/A     46  41  81 CALM      30.16S
GWINNER        NOT AVBL
SHEYENNE NWR     N/A     41  38  89 CALM      29.95
BUFFALO        NOT AVBL
WYNDMERE         N/A     45  39  81 SW3         N/A
 ***** THE ABOVE OBSERVATIONS ARE NON NWS ARE NOT QUALITY
       CONTROLLED AND MAY MIS-REPORT RAIN FOR SNOW...
$$

  *****  WEATHER ACROSS NORTHERN MINNESOTA  *****

CITY           SKY/WX    TMP DP  RH WIND       PRES   REMARKS
FLAG ISLAND    CLEAR     48  43  81 CALM      30.10S
WARROAD        CLEAR     41  37  87 SW3       30.13S
ROSEAU         CLEAR     43  36  75 CALM      30.13R
HALLOCK        CLEAR     45  39  81 S3        30.12S
THF RVR FALLS  CLEAR     46  34  61 CALM      30.14S
HALSTAD        NOT AVBL
FOSSTON        CLEAR     37  34  87 CALM      30.15S
BAUDETTE       CLEAR     39  37  92 SW3       30.12S
WASKISH        CLEAR     39  37  93 CALM      30.13S
CROOKSTON      CLEAR     55  30  38 E5        30.14S
$$
  *****  WEATHER ACROSS CENTRAL AND WEST MINNESOTA  *****

CITY           SKY/WX    TMP DP  RH WIND       PRES   REMARKS
BEMIDJI        CLEAR     40  34  80 CALM      30.14R
PARK RAPIDS    CLEAR     45  38  76 CALM      30.14R
WADENA         CLEAR     43  36  75 CALM      30.14R
DETROIT LAKES  CLEAR     48  41  76 CALM      30.15S
MOORHEAD       CLEAR     50  37  62 CALM      30.15S
FERGUS FALLS   CLEAR     52  37  58 NE5       30.16R
ELBOW LAKE     FAIR      52  39  61 CALM      30.14S
MORRIS MN      CLEAR     46  39  76 CALM      30.14S
STAPLES        CLEAR     39  36  87 CALM      30.14R
WHEATON        CLEAR     46  39  76 W6        30.18R
$$
  *****  WEATHER ELSEWHERE ACROSS MINNESOTA  *****

CITY           SKY/WX    TMP DP  RH WIND       PRES   REMARKS
DULUTH         CLEAR     45  33  63 CALM      30.11S
INTRNTL FALLS  CLEAR     33  31  92 CALM      30.12R
ELY            CLEAR     32  28  86 CALM      30.12R
CLOQUET        CLEAR     39  30  70 NW3       30.12R
BRAINERD       CLEAR     38  36  92 CALM      30.14R
HIBBING        CLEAR     32  28  85 CALM      30.11S
ALEXANDRIA     CLEAR     47  38  71 CALM      30.16R
SAINT CLOUD    CLEAR     44  38  79 CALM      30.13R
MINNEAPOLIS    CLEAR     56  35  45 NW5       30.12R
$$

  *****  WEATHER ACROSS SOUTH DAKOTA  *****

CITY           SKY/WX    TMP DP  RH WIND       PRES   REMARKS
SIOUX FALLS    CLEAR     52  40  63 CALM      30.16R
BROOKINGS      CLEAR     45  39  81 SW5       30.19R
WATERTOWN      CLEAR     46  35  65 CALM      30.16S
HURON          CLEAR     48  42  80 CALM      30.15S
SISSETON         N/A     44  38  79 N5        30.15R
ABERDEEN       CLEAR     48  40  73 E5        30.15S
MITCHELL       CLEAR     53  39  59 W7        30.17R
PIERRE         CLEAR     47  36  65 CALM      30.14S
MOBRIDGE       CLEAR     49  38  65 E5        30.12S
RAPID CITY     CLOUDY    50  44  80 CALM      30.12F
$$

  *****  SOME WEATHER IN NEARBY STATES *****

CITY           SKY/WX    TMP DP  RH WIND       PRES   REMARKS
GLASGOW MT     CLEAR     48  34  58 E12       30.07S
GREAT FALLS MT PTCLDY    52  43  71 E3        29.95S
CHEYENNE WY    CLOUDY    44  42  93 S14G24    30.08F FOG
SCOTTSBLUFF NE CLOUDY    52  45  77 SE12      30.10F
OMAHA NE       PTCLDY    59  41  51 SW3       30.20R
DES MOINES IA  CLEAR     55  41  59 W7        30.15R
DAVENPORT IA   CLEAR     50  41  71 W6        30.08R
CHICAGO IL     PTCLDY    57  41  55 W8        30.02R
EAU CLAIRE WI  CLEAR     44  38  79 CALM      30.09R
LA CROSSE WI   CLEAR     50  42  74 SE3       30.08R
$$

  *****  SOME NATIONAL WEATHER *****

CITY           SKY/WX    TMP DP  RH WIND       PRES   REMARKS
LA GUARDIA NY  CLOUDY    55  45  68 NW8       29.85F
RALEIGH NC     MOCLDY    57  54  89 CALM      30.02S
ATLANTA GA     CLOUDY    56  46  69 NW9G18    30.08F
NEW ORLEANS LA CLOUDY    73  68  84 N13       30.07S
OKLAHOMA CITY  MOCLDY    56  48  74 E9        30.16F
ALBUQUERQUE NM CLOUDY    51  44  77 NE9       30.11S
SALT LAKE CITY CLOUDY    56  48  74 NW3       29.90R
LOS ANGELES CA MOCLDY    58  52  80 W20       29.99S
BOISE ID       PTCLDY    58  47  66 CALM      29.86R
SEATTLE WA     MOCLDY    58  52  80 S8        29.89R
$$

*** WEATHER ACROSS MANITOBA...SASKATCHEWAN AND ONTARIO ***
                ***ONTARIO***

CITY           SKY/WX    TMP DP  RH WIND       PRES   REMARKS
GERALDTON      CLEAR     27  19  74 CALM      30.13S
THUNDER BAY    CLEAR     32  30  93 SW2       30.14R
SIOUX LOOKOUT  CLEAR     28  23  80 VRB2      30.12R
TORONTO        PTCLDY    50  28  43 NW17G23   29.89R
BIG TROUT LK   CLEAR     27  23  86 S5        30.14S WCI  21
PICKLE LAKE    NOT AVBL
DRYDEN         CLEAR     43  34  70 SE2       30.11S
KENORA         CLEAR     48  28  46 E5        30.12S
$$
                *** MANITOBA***

CITY           SKY/WX    TMP DP  RH WIND       PRES   REMARKS
BRANDON        CLEAR     43  37  81 NW2       30.11R
DAUPHIN        MOCLDY    54  41  62 W8        30.05S
ISLAND LAKE    CLEAR     37  28  70 SE5       30.11S
PILOT MOUND      N/A     41  34  75 S8          N/A
THE PAS        CLEAR     48  41  76 S7        29.96F
THOMPSON       CLEAR     45  30  57 VRB2      30.01F
WINNIPEG       PTCLDY    46  39  76 S7        30.12S
LYNN LAKE      CLEAR     48  34  57 S3        29.91F
CHURCHILL      PTCLDY    37  30  75 SW13G20   29.98F
GILLAM         CLEAR     37  23  56 S8        30.06F
$$
                ***SASKATCHEWAN***

CITY           SKY/WX    TMP DP  RH WIND       PRES   REMARKS
ESTEVAN        NOT AVBL
KINDERSLEY     CLEAR     50  27  40 S10       30.04S
LLOYDMINSTER   CLEAR     52  27  37 S8        30.00S
PRINCE ALBERT  PTCLDY    52  34  50 W3        30.03S
REGINA         CLEAR     50  36  57 SE13      30.12R



USA.gov is the U.S. government's official web portal to all federal, state and local government web resources and services.